Location: Peach Mountain Observatory
(42.3967°N, 83.9367°W)
Time: 20:24:09
(UTC-05:00)

S-56A Canister/Altair - Pass Details

Date: 26 January 2020
Orbit: 633 x 2499 km, 38.9° (Epoch: 21 February)

Event Time Altitude Azimuth Distance (km) Brightness Sun altitude
Rises 01:40:50 0° 272° (W) 2,974 - -63.9°
Reaches altitude 10° 01:43:36 10° 256° (WSW) 2,010 - -63.7°
Maximum altitude 01:46:57 21° 206° (SSW) 1,436 - -63.3°
Drops below altitude 10° 01:50:29 10° 157° (SSE) 2,130 - -63.0°
Sets 01:53:32 0° 141° (SE) 3,211 - -62.7°
